Cloud_Cover
100 100 100 100 100 20 5 5 5 5 22 87 100 100 94 31 100 100 100 100 19 8 5 5 6 26 17 5 5 5 5 29 100 34 12 12 81 98 100 53 70 100 60
100 100 100 100 100 100 100 100 97 89 96 100 55 87 100 100 79 46 26 34 78 88 8 6 45 31 5 5 4 5 53 48 100 86 98 99 100 100 69 100 100 100 100
100 100 100 100 100 100 100 96 93 99 100 98 58 76 98 100 100 58 62 11 12 5 5 11 54 32 36 54 76 81 5 44 29 100 74 85 98 100 100 100 100 100 100
100 100 100 100 100 100 100 100 100 100 100 100 100 100 38 22 100 100 54 15 5 4 0 0 0 98 100 100 100 100 92 100 100 100 100 100 98 96 100 100 100 100 100
100 100 100 100 100 100 100 100 100 100 100 64 62 41 65 5 5 82 52 18 5 5 14 40 7 5 10 84 100 100 100 100 98 100 100 100 100 87 100 100 100 100 100
100 100 100 100 100 100 100 100 100 100 100 99 72 37 72 55 74 6 5 5 5 24 92 98 100 100 86 93 100 100 100 100 100 100 100 100 100 100 100 100 100 100 100
100 100 100 100 100 100 100 100 100 100 100 100 90 95 98 31 32 5 5 5 5 5 57 99 100 100 100 100 100 100 100 100 100 100 100 100 100 100 100 100 100 100 100
100 100 100 100 100 100 100 72 34 5 36 28 57 72 92 25 53 32 15 6 6 39 97 99 100 100 100 100 100 100 98 100 100 100 100 100 100 100 100 100 100 100 100
100 99 98 94 90 81 38 6 20 41 31 60 98 89 97 54 46 13 8 44 25 63 59 9 7 39 99 100 100 91 100 100 100 100 100 100 100 100 100 100 100 100 100
72 53 14 5 5 5 5 23 33 62 54 46 77 48 98 60 62 73 57 37 26 24 52 9 5 3 12 1 94 100 100 100 100 100 100 100 100 100 100 100 100 100 100
100 89 72 60 61 85 71 37 66 63 37 84 96 73 56 48 55 33 63 75 21 67 23 62 87 100 100 100 100 100 100 100 100 100 100 100 100 100 100 100 100 100 100
100 100 100 100 100 100 100 100 100 100 97 80 98 53 75 8 36 21 7 33 5 0 0 0 0 41 76 100 100 100 100 100 100 100 100 100 100 100 100 100 100 100 100
100 100 100 100 100 100 100 100 100 100 91 35 99 66 38 22 25 5 5 8 2 0 0 0 22 65 73 100 100 100 100 100 100 100 100 100 100 100 100 100 100 95 100
100 100 100 100 100 100 100 100 100 84 87 75 80 70 58 28 23 18 63 100 69 0 25 81 86 62 17 92 100 100 100 100 100 100 100 100 100 100 100 100 100 100 99
100 100 88 100 100 56 11 7 9 12 24 5 4 4 2 100 100 100 92 100 100 94 40 41 50 46 36 97 100 100 100 100 100 100 100 100 100 100 100 100 100 100 100
100 100 100 98 89 78 99 100 15 6 7 17 3 2 71 100 100 100 100 100 100 100 100 100 100 100 100 95 79 90 100 100 100 100 100 100 100 100 100 100 100 100 100
100 100 98 77 95 100 99 30 5 6 44 52 28 59 100 100 100 100 100 100 100 100 100 100 100 100 100 100 100 91 93 97 100 100 100 100 100 100 100 100 100 100 100
100 100 100 100 100 63 17 8 7 100 100 100 100 100 100 100 100 100 100 100 100 100 100 100 98 92 96 89 58 35 39 62 72 97 98 100 93 100 100 100 100 100 100
87 99 100 80 5 62 73 5 86 100 100 100 100 100 100 100 100 100 100 100 100 100 100 97 12 5 8 6 5 5 5 87 100 100 100 100 100 100 100 100 100 100 100
100 100 93 69 20 95 5 26 100 100 100 100 100 100 96 100 100 100 100 100 91 55 36 90 5 5 5 5 5 0 0 0 6 93 99 99 99 100 96 98 82 70 54
69 6 9 5 12 15 54 97 100 100 100 100 100 100 98 100 94 75 26 4 0 0 0 2 2 3 3 5 7 5 0 1 5 5 5 5 6 5 6 19 5 5 5
65 29 5 46 95 100 100 100 100 100 100 100 93 59 20 6 4 5 3 0 0 0 0 0 0 0 0 4 4 5 5 5 5 5 5 5 13 34 68 74 73 72 64
52 54 78 84 100 100 100 100 100 100 100 100 100 10 5 5 5 5 5 5 14 5 5 3 2 0 0 0 4 5 5 5 5 5 23 38 30 40 61 71 63 5 5
100 96 75 100 100 100 100 100 100 56 52 100 100 98 37 20 5 26 9 14 60 10 5 5 5 5 5 5 5 5 5 5 33 88 98 76 65 86 73 33 5 5 5
100 82 59 99 100 100 100 100 74 5 55 100 100 100 98 67 20 26 43 76 100 62 13 5 5 5 5 5 5 14 59 61 23 32 42 31 38 43 5 5 5 5 6
95 65 13 96 100 100 100 81 9 5 5 91 100 100 94 85 87 75 97 100 100 98 40 47 5 5 10 10 5 6 27 100 100 100 76 34 27 22 5 5 5 6 93